Date,TemperatureHighF,TemperatureAvgF,TemperatureLowF,DewpointHighF,DewpointAvgF,DewpointLowF,HumidityHigh,HumidityAvg,HumidityLow,PressureMaxIn,PressureMinIn,WindSpeedMaxMPH,WindSpeedAvgMPH,GustSpeedMaxMPH,PrecipitationSumIn
2013-1-1,42,38,34,41,35,28,100,90,72,30.12,29.96,13,2,14,0.23
2013-1-2,43,38,35,42,36,33,96,93,86,30.13,29.93,21,5,21,0.02
2013-1-3,40,35,30,34,31,26,95,88,76,30.30,30.08,20,7,20,0.00
2013-1-4,39,30,23,28,24,21,92,77,55,30.41,30.30,30,6,30,0.00
2013-1-5,49,35,22,31,24,19,88,67,38,30.43,30.23,14,2,14,0.00
2013-1-6,43,38,35,38,34,31,93,85,75,30.24,30.08,25,6,25,0.01
2013-1-7,52,39,28,33,28,25,88,67,39,30.39,30.23,21,6,21,0.00
2013-1-8,56,40,27,43,33,23,89,76,54,30.43,30.30,18,4,18,0.00
2013-1-9,48,43,38,46,41,36,95,92,88,30.46,30.35,9,1,9,0.00
2013-1-10,65,53,44,55,48,43,95,85,67,30.47,30.23,34,7,34,0.00
2013-1-11,59,53,49,55,51,47,95,93,84,30.25,30.03,29,8,29,0.03
2013-1-12,72,61,53,62,56,52,95,87,67,30.12,29.98,25,6,25,0.00
2013-1-13,72,63,60,59,56,53,92,79,56,30.01,29.90,26,11,26,0.02
2013-1-14,61,51,43,58,49,42,96,95,92,30.16,29.93,31,5,31,1.74
2013-1-15,51,47,44,50,46,42,96,96,95,30.10,29.95,17,3,17,0.76
2013-1-16,56,51,47,55,49,46,96,95,91,29.99,29.88,12,2,13,0.22
2013-1-17,47,40,32,46,38,30,96,95,95,30.24,29.77,29,9,29,1.10
2013-1-18,44,34,28,32,28,23,94,82,44,30.52,30.24,22,5,22,0.01
2013-1-19,54,38,26,33,28,22,94,73,29,30.45,30.16,13,2,13,0.00
2013-1-20,52,40,28,38,31,25,93,71,54,30.17,30.06,21,5,22,0.00
2013-1-21,46,35,26,33,25,14,94,68,42,30.10,29.99,33,6,33,0.00
2013-1-22,29,24,19,15,6,-2,64,47,28,30.29,30.07,35,12,36,0.00
2013-1-23,42,31,23,27,15,4,68,51,42,30.36,30.14,21,7,21,0.00
2013-1-24,44,33,24,33,18,6,80,56,34,30.38,30.03,25,12,0,0.00
2013-1-25,38,28,22,36,20,6,95,74,47,30.40,30.09,20,10,0,0.06
2013-1-26,33,30,30,28,28,27,92,89,81,30.34,30.29,8,2,8,0.01
2013-1-27,45,34,24,33,28,22,99,81,62,30.49,30.34,22,7,22,0.01
2013-1-28,65,48,34,49,40,32,92,75,53,30.41,30.19,21,4,22,0.00
2013-1-29,71,56,42,58,49,40,94,80,50,30.20,29.90,29,6,29,0.00
2013-1-30,64,57,43,60,54,39,95,90,82,29.90,29.39,41,15,43,1.16
2013-1-31,42,34,29,39,25,22,91,70,53,30.00,29.49,38,10,43,0.01
2013-2-1,40,24,17,31,16,10,93,73,55,30.40,29.92,36,11,37,0.00
2013-2-2,37,27,17,31,20,12,94,78,42,30.40,30.06,16,2,17,0.00
2013-2-3,41,33,28,32,28,22,93,82,65,30.10,29.93,31,9,32,0.08
2013-2-4,52,35,24,31,24,20,88,67,38,30.14,29.96,18,4,18,0.00
2013-2-5,53,41,33,41,34,28,92,75,54,29.99,29.90,19,3,19,0.00
2013-2-6,55,44,35,38,30,22,88,61,33,30.20,29.99,20,6,20,0.00
2013-2-7,46,40,34,39,33,26,94,77,57,30.20,29.96,19,3,19,0.39
2013-2-8,50,40,33,45,37,28,100,87,64,30.16,29.89,33,8,33,0.02
2013-2-9,54,40,28,29,25,18,86,61,25,30.32,30.15,23,5,23,0.00
2013-2-10,51,43,35,44,29,22,93,61,37,30.32,30.05,42,13,42,0.24
2013-2-11,55,50,45,51,45,33,94,82,61,30.07,29.95,37,7,38,0.02
2013-2-12,50,44,36,38,31,26,93,63,40,30.11,29.87,18,4,18,0.07
2013-2-13,51,40,35,44,37,31,94,89,71,29.90,29.60,31,10,34,0.06
2013-2-14,51,40,33,32,30,27,88,67,43,30.04,29.90,22,5,22,0.00
2013-2-15,54,38,28,40,32,25,93,80,44,30.09,29.94,27,4,28,0.01
2013-2-16,33,29,22,30,24,14,93,82,55,30.02,29.87,34,10,34,0.00
2013-2-17,34,26,20,17,13,10,70,57,41,30.27,30.02,36,11,40,0.00
2013-2-18,52,36,19,28,21,13,82,57,38,30.38,30.10,35,8,36,0.00
2013-2-19,51,41,33,43,28,16,92,62,34,30.10,29.84,37,12,39,0.03
2013-2-20,42,34,28,19,14,3,61,45,24,30.17,30.05,28,10,28,0.00
2013-2-21,59,40,23,36,18,-2,88,47,11,30.23,30.04,26,4,26,0.15
2013-2-22,44,39,35,41,37,33,94,90,81,30.19,30.03,26,8,28,0.25
2013-2-23,53,46,40,50,44,38,96,93,88,30.05,29.80,13,2,13,0.20
2013-2-24,51,43,35,43,32,25,92,67,38,30.03,29.83,25,8,25,0.00
2013-2-25,48,37,28,31,28,25,91,69,48,30.09,29.95,31,8,33,0.00
2013-2-26,42,38,33,40,36,31,94,93,82,29.95,29.50,35,11,35,0.37
2013-2-27,51,41,36,38,34,30,92,76,57,29.79,29.63,31,8,31,0.02
2013-2-28,36,33,31,34,28,25,92,82,74,29.93,29.71,28,10,28,0.01
2013-3-1,38,33,30,33,30,27,94,88,76,29.95,29.90,19,7,19,0.01
2013-3-2,39,31,26,32,28,22,93,88,68,29.98,29.87,25,8,28,0.00
2013-3-3,30,26,23,23,19,17,88,76,62,30.08,29.96,24,10,24,0.00
2013-3-4,50,36,24,24,19,16,77,54,27,30.18,30.04,21,5,21,0.00
2013-3-5,45,38,33,44,33,22,95,84,51,30.05,29.62,40,4,43,0.82
2013-3-6,33,28,26,29,26,22,92,90,83,30.21,29.70,37,14,37,0.00
2013-3-7,36,30,28,32,26,24,92,85,78,30.33,30.21,23,9,24,0.01
2013-3-8,47,35,24,32,27,22,91,73,51,30.39,30.27,21,7,22,0.00
2013-3-9,64,45,26,33,28,23,91,58,26,30.34,30.18,23,5,25,0.00
2013-3-10,64,54,44,38,34,29,65,47,34,30.20,30.03,29,11,38,0.00
2013-3-11,54,52,49,51,47,36,94,85,53,30.06,29.75,43,14,44,0.61
2013-3-12,52,42,34,50,38,31,100,85,66,30.03,29.73,32,10,32,0.17
2013-3-13,44,36,29,33,27,18,92,71,51,30.21,30.02,32,10,32,0.00
2013-3-14,42,32,24,22,19,16,74,58,36,30.33,30.21,30,10,34,0.00
2013-3-15,68,48,32,42,32,18,75,55,27,30.23,29.89,29,4,29,0.00
2013-3-16,74,61,49,51,46,41,76,58,39,29.88,29.68,25,6,25,0.00
2013-3-17,72,62,51,51,48,41,81,61,33,29.86,29.73,25,5,25,0.00
2013-3-18,51,44,41,46,41,38,95,90,81,29.93,29.77,31,10,37,0.55
2013-3-19,54,45,36,43,32,15,95,65,34,30.07,29.82,33,9,34,0.02
2013-3-20,51,39,29,31,19,13,93,46,26,30.09,29.82,33,7,34,0.00
2013-3-21,34,28,20,28,17,13,93,66,45,29.99,29.82,28,10,28,0.00
2013-3-22,44,33,19,25,18,13,83,56,31,30.07,29.99,17,3,17,0.00
2013-3-23,53,43,36,44,35,25,89,74,57,30.03,29.80,23,3,23,0.01
2013-3-24,48,43,38,44,40,37,98,91,82,29.86,29.43,28,8,28,0.83
2013-3-25,38,33,29,37,27,23,94,79,65,29.92,29.49,32,11,32,0.02
2013-3-26,35,30,27,33,27,24,93,90,82,30.23,29.91,32,11,32,0.02
2013-3-27,41,33,29,30,27,23,92,78,60,30.32,30.21,24,9,26,0.02
2013-3-28,49,37,25,30,25,22,89,64,41,30.33,30.24,28,6,28,0.00
2013-3-29,54,38,26,38,30,22,94,77,34,30.34,30.24,22,3,22,0.12
2013-3-30,61,48,38,47,41,37,95,77,51,30.24,29.98,14,2,14,0.21
2013-3-31,60,52,46,53,48,41,95,89,64,29.99,29.79,18,2,18,0.49
2013-4-1,60,50,40,49,43,33,96,80,57,29.98,29.83,25,6,25,0.01
2013-4-2,52,44,35,34,27,20,73,53,31,30.14,29.97,25,8,25,0.00
2013-4-3,57,45,33,31,24,19,68,45,29,30.24,30.13,19,4,20,0.00
2013-4-4,48,39,34,36,31,19,94,76,35,30.20,29.95,27,5,27,0.60
2013-4-5,55,44,37,46,39,35,95,81,56,30.07,29.94,22,6,22,0.00
2013-4-6,66,50,32,42,36,30,94,63,31,30.20,30.06,27,7,29,0.00
2013-4-7,69,58,47,48,41,34,74,54,41,30.13,29.98,25,9,26,0.00
2013-4-8,75,62,46,55,49,42,86,65,47,30.08,29.94,30,6,30,0.00
2013-4-9,81,67,50,58,54,47,91,65,44,30.12,29.98,22,6,23,0.00
2013-4-10,84,69,52,60,55,49,91,64,39,30.02,29.83,29,6,29,0.00
2013-4-11,76,68,61,62,57,54,93,70,48,29.85,29.60,33,10,33,1.46
2013-4-12,62,58,50,59,51,39,94,79,53,29.85,29.52,28,9,29,0.40
2013-4-13,66,55,45,44,39,33,77,57,35,30.01,29.85,26,8,29,0.00
2013-4-14,69,55,40,50,42,37,90,64,36,30.05,29.90,34,9,34,0.00
2013-4-15,71,59,51,58,53,48,94,82,60,30.11,29.90,30,7,30,0.01
2013-4-16,80,66,56,60,57,53,92,74,46,30.19,30.07,21,7,22,0.00
2013-4-17,73,64,59,63,59,55,94,83,63,30.16,30.03,18,4,18,0.16
2013-4-18,73,67,60,62,58,55,89,76,53,30.03,29.80,36,12,43,0.00
2013-4-19,67,58,43,62,54,36,94,88,78,29.91,29.61,41,16,41,0.74
2013-4-20,56,46,35,39,34,30,85,65,45,30.26,29.91,28,8,28,0.00
2013-4-21,61,48,32,39,35,29,94,64,35,30.40,30.26,27,5,28,0.00
2013-4-22,66,52,38,44,39,34,88,62,36,30.35,30.12,20,5,20,0.00
2013-4-23,72,56,38,48,40,31,91,57,34,30.21,30.00,26,6,27,0.00
2013-4-24,73,59,47,59,50,44,92,75,49,30.07,29.90,31,7,31,0.01
2013-4-25,62,51,40,45,37,26,93,65,27,30.30,30.07,27,7,27,0.00
2013-4-26,68,53,35,48,38,31,91,60,34,30.38,30.22,19,4,20,0.01
2013-4-27,54,51,50,51,49,47,94,92,87,30.32,30.17,21,4,21,0.50
2013-4-28,52,50,46,51,48,44,95,93,82,30.18,29.93,31,6,31,1.03
2013-4-29,71,59,50,59,53,49,96,83,59,30.02,29.87,14,3,15,0.01
2013-4-30,76,62,50,60,54,48,95,78,49,30.07,29.92,23,4,23,0.00
2013-5-1,68,60,52,56,53,50,93,80,60,30.18,30.07,20,6,21,0.00
2013-5-2,67,58,54,58,53,51,92,83,68,30.19,30.12,30,10,30,0.00
2013-5-3,63,57,51,54,50,46,93,77,62,30.14,29.98,32,10,32,0.00
2013-5-4,60,53,48,51,47,39,93,78,67,29.99,29.86,34,12,36,0.07
2013-5-5,51,49,47,49,47,45,95,93,91,29.90,29.76,18,4,19,1.11
2013-5-6,65,56,50,54,48,40,95,76,43,29.84,29.73,28,7,31,0.04
2013-5-7,67,54,42,55,48,40,95,82,54,29.91,29.80,24,3,24,0.00
2013-5-8,67,57,51,59,54,50,95,89,69,30.00,29.87,16,2,17,0.09
2013-5-9,75,62,50,63,54,49,96,78,50,30.07,29.97,20,3,20,0.01
2013-5-10,78,64,50,62,57,48,94,79,51,30.05,29.87,14,2,14,0.00
2013-5-11,72,62,56,63,59,53,94,88,69,29.90,29.76,24,2,24,0.09
2013-5-12,59,53,47,52,43,33,92,71,46,30.05,29.85,26,6,26,0.00
2013-5-13,59,50,37,40,36,32,86,60,41,30.17,30.05,25,5,25,0.00
2013-5-14,76,57,37,51,43,32,92,62,38,30.23,30.02,16,3,16,0.00
2013-5-15,81,67,49,63,54,47,92,66,43,30.08,29.91,22,4,24,0.00
2013-5-16,75,66,56,61,56,51,87,72,52,29.98,29.90,16,3,16,0.00
2013-5-17,80,67,54,62,57,51,93,73,49,30.04,29.93,23,4,23,0.00
2013-5-18,69,64,60,64,60,56,94,87,70,30.01,29.95,21,6,21,0.51
2013-5-19,77,66,62,68,62,60,94,90,71,30.04,29.92,23,3,23,0.15
2013-5-20,81,70,60,69,64,59,95,83,59,30.05,29.92,18,2,18,0.00
2013-5-21,86,70,59,70,63,57,95,80,51,29.99,29.83,21,2,21,0.00
2013-5-22,80,67,59,68,62,57,94,85,58,29.91,29.78,27,4,27,0.44
2013-5-23,78,66,59,65,60,55,95,82,51,29.89,29.77,21,4,21,0.10
2013-5-24,63,58,50,55,48,39,93,73,50,30.19,29.88,30,8,30,0.00
2013-5-25,70,56,39,49,43,36,93,64,34,30.30,30.14,24,4,26,0.00
2013-5-26,71,60,52,54,50,45,90,69,46,30.22,30.13,19,3,20,0.00
2013-5-27,79,65,49,62,55,47,93,71,51,30.21,30.04,26,5,26,0.00
2013-5-28,82,70,58,66,60,55,92,72,47,30.12,30.02,29,6,29,0.00
2013-5-29,84,72,59,65,61,57,93,70,41,30.14,30.03,21,5,25,0.00
2013-5-30,82,71,58,65,61,55,94,73,49,30.18,30.05,26,6,26,0.00
2013-5-31,81,72,59,65,61,57,93,71,50,30.12,30.00,27,8,27,0.00
2013-6-1,82,73,63,67,63,60,91,72,51,30.03,29.90,38,8,38,0.00
2013-6-2,70,66,65,65,64,63,94,93,85,29.95,29.82,20,3,20,0.52
2013-6-3,78,69,63,68,64,60,95,83,63,29.90,29.80,22,3,26,0.00
2013-6-4,81,69,57,66,61,55,95,78,52,29.99,29.89,17,3,19,0.00
2013-6-5,80,69,60,69,63,58,94,82,64,30.01,29.84,27,6,27,0.38
2013-6-6,79,69,63,70,65,62,95,88,71,29.90,29.68,17,4,17,0.03
2013-6-7,78,68,62,71,65,60,95,90,73,29.76,29.61,19,3,19,0.74
2013-6-8,78,67,58,69,62,56,95,85,64,30.02,29.76,13,2,13,0.35
2013-6-9,79,67,59,72,64,57,95,90,71,30.08,29.94,29,4,29,0.68
2013-6-10,79,70,65,69,64,60,95,83,57,29.96,29.81,17,6,18,0.36
2013-6-11,79,71,63,68,64,61,94,81,60,29.95,29.86,21,4,21,0.08
2013-6-12,86,74,62,76,68,60,94,82,64,29.97,29.85,23,3,23,0.00
2013-6-13,89,72,63,73,66,61,95,85,52,29.85,29.63,31,3,31,0.11
2013-6-14,77,67,57,63,59,55,94,76,51,30.00,29.76,18,3,18,0.00
2013-6-15,82,68,52,64,59,50,94,74,49,30.09,29.98,14,1,14,0.00
2013-6-16,82,71,60,69,64,58,94,79,57,30.06,29.93,11,1,11,0.00
2013-6-17,80,71,66,71,67,64,94,87,67,29.96,29.85,14,2,15,0.02
2013-6-18,73,68,63,70,65,61,96,93,87,29.89,29.73,16,2,16,0.14
2013-6-19,81,68,57,69,62,55,96,83,59,30.05,29.87,15,1,15,0.01
2013-6-20,82,69,59,69,64,57,95,83,60,30.14,30.04,19,3,20,0.00
2013-6-21,83,71,61,68,63,59,94,77,53,30.18,30.08,14,3,14,0.00
2013-6-22,85,71,56,66,61,54,94,74,45,30.17,30.02,16,2,16,0.00
2013-6-23,84,71,60,70,64,58,94,79,52,30.14,30.03,14,2,14,0.00
2013-6-24,86,73,64,74,67,62,95,85,54,30.14,30.00,13,2,13,0.01
2013-6-25,85,73,63,72,67,61,94,84,59,30.07,29.93,14,1,14,0.00
2013-6-26,83,72,64,74,68,62,96,88,71,29.98,29.82,14,2,14,0.08
2013-6-27,82,70,64,74,68,62,95,91,76,29.87,29.71,24,2,24,0.23
2013-6-28,85,73,65,74,68,64,96,85,60,29.76,29.55,18,2,18,0.39
2013-6-29,81,70,62,70,63,59,96,80,51,29.65,29.57,17,2,17,0.01
2013-6-30,86,70,57,67,62,55,95,79,47,29.73,29.63,23,2,25,0.33
2013-7-1,83,70,65,70,65,63,95,86,60,29.87,29.71,21,4,21,0.74
2013-7-2,84,71,64,71,66,62,96,85,59,30.03,29.85,25,6,25,0.04
2013-7-3,75,67,62,71,65,61,95,93,87,30.15,30.00,19,4,21,2.27
2013-7-4,77,66,62,72,65,60,96,94,81,30.16,30.08,30,4,30,1.12
2013-7-5,82,71,67,70,67,65,94,86,62,30.15,30.07,34,10,34,0.02
2013-7-6,81,72,66,72,68,64,95,88,68,30.11,30.00,30,8,37,0.80
2013-7-7,80,71,68,73,69,66,95,92,76,30.08,30.01,14,3,15,0.54
2013-7-8,84,74,67,72,68,65,96,84,60,30.12,30.02,13,1,14,0.02
2013-7-9,90,74,64,74,68,62,95,82,48,30.09,29.95,25,2,26,0.00
2013-7-10,85,72,65,76,68,63,95,88,65,30.04,29.87,14,2,14,0.19
2013-7-11,80,72,66,74,68,64,96,90,75,29.90,29.80,11,1,12,0.01
2013-7-12,82,72,63,73,67,60,96,85,63,29.92,29.80,16,2,16,0.05
2013-7-13,79,69,60,70,64,58,96,85,69,30.03,29.91,24,4,24,0.07
2013-7-14,73,69,66,71,67,64,95,93,88,30.19,30.02,23,4,26,0.77
2013-7-15,85,74,64,72,67,63,96,81,56,30.26,30.17,17,4,18,0.01
2013-7-16,88,73,63,76,68,61,94,86,61,30.26,30.16,19,1,20,0.01
2013-7-17,87,72,66,78,69,64,96,91,70,30.22,30.10,15,1,17,0.96
2013-7-18,88,72,67,76,69,65,95,90,64,30.15,30.00,21,1,21,0.25
2013-7-19,88,75,67,77,70,65,96,85,62,30.06,29.88,27,1,27,0.00
2013-7-20,83,74,67,75,70,65,95,88,73,29.96,29.85,14,1,14,0.00
2013-7-21,81,72,67,75,69,65,95,90,76,29.94,29.86,21,1,21,0.17
2013-7-22,85,73,65,74,68,63,96,86,63,29.93,29.73,22,1,22,0.25
2013-7-23,82,72,66,73,68,64,95,88,69,29.83,29.72,15,3,16,0.08
2013-7-24,82,72,65,73,68,64,96,87,69,29.80,29.72,19,2,19,0.00
2013-7-25,82,71,64,70,65,61,95,82,51,29.97,29.79,20,2,20,0.01
2013-7-26,85,71,58,71,65,56,95,82,58,30.02,29.91,20,4,20,0.00
2013-7-27,80,71,66,71,67,64,94,88,68,29.95,29.80,17,1,17,0.19
2013-7-28,78,71,64,70,66,61,95,85,66,29.97,29.83,17,3,17,0.00
2013-7-29,79,68,58,66,60,56,95,79,51,30.15,29.96,15,2,16,0.00
2013-7-30,80,68,55,68,61,53,93,81,56,30.18,30.08,11,1,11,0.00
2013-7-31,74,68,64,70,66,62,94,91,85,30.12,29.89,14,2,14,0.27
2013-8-1,80,72,66,74,68,64,96,88,73,29.92,29.83,18,2,19,0.01
2013-8-2,83,70,60,71,65,59,96,84,61,29.97,29.89,12,1,13,0.00
2013-8-3,81,71,62,71,66,60,95,85,63,29.97,29.90,16,2,16,0.00
2013-8-4,78,71,65,71,66,62,95,85,68,29.99,29.91,14,3,19,0.04
2013-8-5,85,71,60,71,64,58,95,80,56,30.01,29.88,17,3,19,0.00
2013-8-6,87,72,64,72,66,61,94,82,57,29.95,29.88,18,2,18,0.03
2013-8-7,79,71,68,72,68,66,94,91,78,29.97,29.92,25,5,25,0.19
2013-8-8,83,71,66,74,69,64,96,91,73,29.99,29.92,21,2,21,0.64
2013-8-9,83,73,67,75,70,66,96,91,75,30.01,29.94,16,1,16,0.09
2013-8-10,83,72,68,77,69,66,96,92,74,30.06,29.98,25,1,26,1.46
2013-8-11,83,72,66,76,69,65,96,91,74,30.10,29.99,22,1,23,0.26
2013-8-12,84,72,67,76,69,66,96,91,71,30.04,29.91,9,0,10,0.03
2013-8-13,80,72,68,75,69,66,96,91,78,29.91,29.78,25,2,25,0.24
2013-8-14,74,67,61,66,62,58,94,86,69,30.00,29.82,13,3,14,0.01
2013-8-15,74,64,57,64,59,55,94,83,65,30.07,29.99,22,5,23,0.00
2013-8-16,78,66,58,63,59,56,92,80,59,30.07,29.99,15,4,15,0.00
2013-8-17,72,64,60,64,60,57,94,87,74,30.11,30.04,21,4,21,0.15
2013-8-18,75,66,62,70,63,60,95,92,81,30.15,30.06,12,2,12,0.54
2013-8-19,76,68,64,70,65,62,95,91,77,30.12,30.01,11,2,11,0.39
2013-8-20,82,71,65,72,67,63,95,88,69,30.12,30.03,12,2,12,0.00
2013-8-21,76,70,65,71,67,63,94,90,80,30.15,30.05,11,2,11,0.00
2013-8-22,82,73,66,73,68,64,95,86,67,30.11,29.96,10,2,17,0.00
2013-8-23,81,70,63,74,67,62,96,89,74,30.02,29.92,13,2,13,0.01
2013-8-24,81,70,63,68,63,59,96,80,49,30.22,30.02,20,4,20,0.00
2013-8-25,81,67,54,64,59,52,93,77,49,30.33,30.19,15,3,15,0.00
2013-8-26,80,66,55,68,61,53,94,85,66,30.27,30.08,14,1,14,0.00
2013-8-27,80,68,58,72,65,56,95,89,76,30.11,29.98,14,1,14,0.00
2013-8-28,84,73,65,75,68,63,95,86,70,30.01,29.89,15,2,16,0.00
2013-8-29,84,76,70,76,71,67,93,85,73,29.92,29.83,24,4,24,0.37
2013-8-30,85,74,67,74,70,65,95,86,66,29.95,29.84,19,4,19,0.00
2013-8-31,83,73,68,76,69,65,94,88,72,29.89,29.78,15,2,17,0.00
2013-9-1,88,72,67,75,69,65,95,89,64,29.84,29.75,31,1,31,0.17
2013-9-2,81,72,65,74,68,63,95,89,74,29.86,29.76,16,2,16,0.00
2013-9-3,79,70,62,71,66,60,94,86,69,29.94,29.79,25,3,25,0.38
2013-9-4,82,68,60,70,63,58,95,85,60,30.07,29.94,17,1,17,0.01
2013-9-5,80,67,58,69,62,56,95,84,61,30.10,30.03,13,2,13,0.00
2013-9-6,83,67,55,66,60,53,95,80,50,30.13,30.00,14,1,14,0.00
2013-9-7,80,67,58,68,62,56,95,85,63,30.07,29.94,17,2,17,0.01
2013-9-8,80,69,59,72,65,57,94,87,72,29.97,29.89,13,1,13,0.00
2013-9-9,86,72,62,72,66,60,95,82,57,30.07,29.96,21,3,21,0.00
2013-9-10,88,72,62,70,65,60,94,80,50,30.17,30.06,16,2,16,0.00
2013-9-11,84,71,61,73,67,59,94,86,66,30.17,30.02,15,1,15,0.07
2013-9-12,79,70,64,73,66,62,95,90,78,30.05,29.81,24,2,25,0.98
2013-9-13,74,66,56,66,60,53,95,83,58,29.89,29.78,19,3,20,0.07
2013-9-14,75,60,49,60,54,47,94,81,50,30.06,29.88,11,1,11,0.00
2013-9-15,77,64,52,64,58,50,93,81,58,30.15,30.04,18,4,31,0.00
2013-9-16,77,64,53,67,59,51,95,85,63,30.11,30.04,16,2,17,0.01
2013-9-17,71,64,59,60,57,55,92,80,62,30.21,30.11,20,5,20,0.00
2013-9-18,67,62,57,60,57,53,92,84,72,30.20,30.11,17,3,17,0.01
2013-9-19,76,67,60,68,62,58,93,87,71,30.13,30.01,16,1,16,0.00
2013-9-20,81,69,60,69,64,59,95,84,59,30.03,29.84,14,1,14,0.00
2013-9-21,68,63,60,64,61,58,94,92,89,29.85,29.66,24,4,24,0.59
2013-9-22,70,61,54,60,56,52,95,85,68,29.88,29.72,15,3,15,0.03
2013-9-23,78,60,48,62,55,47,95,83,54,30.00,29.88,10,1,10,0.00
2013-9-24,79,63,52,63,57,50,94,83,53,30.02,29.85,19,2,19,0.01
2013-9-25,64,61,59,62,59,57,94,92,90,29.87,29.78,14,3,14,0.48
2013-9-26,74,63,57,65,59,55,95,86,66,29.99,29.83,17,2,18,0.00
2013-9-27,74,62,54,62,57,52,95,84,63,30.12,29.99,8,0,8,0.00
2013-9-28,74,62,52,61,56,50,93,82,60,30.19,30.06,15,2,15,0.00
2013-9-29,72,60,52,61,55,50,92,83,63,30.10,29.96,17,3,17,0.00
2013-9-30,75,64,56,62,57,53,93,81,52,30.03,29.93,13,1,13,0.00
2013-10-1,76,63,54,63,58,52,94,85,63,30.11,30.00,13,1,15,0.00
2013-10-2,78,63,53,66,58,51,95,85,58,30.14,30.03,9,1,10,0.00
2013-10-3,80,65,55,65,60,53,94,83,57,30.10,30.00,9,1,9,0.00
2013-10-4,82,67,56,67,61,54,94,82,54,30.12,30.02,8,1,9,0.00
2013-10-5,84,67,57,69,61,55,95,82,52,30.10,29.95,17,2,17,0.00
2013-10-6,80,68,58,67,61,56,94,81,55,29.98,29.79,27,7,27,0.01
2013-10-7,68,58,49,64,54,47,93,88,71,30.01,29.73,23,5,23,0.85
2013-10-8,71,55,44,55,49,43,95,82,53,30.16,30.00,17,3,17,0.00
2013-10-9,72,57,45,60,51,43,95,82,60,30.19,30.06,11,1,11,0.00
2013-10-10,69,57,45,58,51,43,98,82,59,30.09,29.99,21,3,21,0.01
2013-10-11,73,60,46,60,54,44,94,81,59,30.03,29.93,18,2,18,0.00
2013-10-12,74,62,53,62,57,51,93,84,66,30.05,29.95,17,2,17,0.00
2013-10-13,71,64,59,64,60,57,93,87,77,30.14,30.05,13,2,15,0.00
2013-10-14,74,64,56,64,59,54,94,85,67,30.17,30.05,18,2,18,0.00
2013-10-15,71,61,52,61,56,50,93,85,67,30.12,29.98,14,3,14,0.00
2013-10-16,71,61,52,60,56,50,93,84,66,30.01,29.90,13,2,13,0.00
2013-10-17,73,61,53,66,58,50,95,90,77,29.91,29.75,23,4,23,0.03
2013-10-18,66,55,46,52,49,45,95,81,55,29.99,29.88,13,3,13,0.00
2013-10-19,61,54,50,55,50,46,93,85,66,29.93,29.81,21,3,21,0.00
2013-10-20,63,50,40,46,40,32,93,71,33,30.05,29.92,13,2,13,0.00
2013-10-21,69,52,36,53,45,34,94,81,48,30.12,29.95,17,2,17,0.00
2013-10-22,66,56,49,53,49,47,94,81,54,29.99,29.77,18,3,18,0.00
2013-10-23,54,46,36,48,39,30,92,77,58,30.03,29.70,27,6,27,0.00
2013-10-24,50,40,31,39,34,29,92,79,61,30.19,30.03,17,2,18,0.01
2013-10-25,45,37,30,37,29,26,89,75,55,30.38,30.19,21,5,21,0.00
2013-10-26,59,40,24,40,30,22,92,71,37,30.35,30.09,12,1,12,0.00
2013-10-27,64,54,47,51,45,39,85,71,58,30.11,30.01,18,4,18,0.00
2013-10-28,61,54,47,56,50,45,94,89,75,30.22,30.07,7,1,7,0.02
2013-10-29,69,58,49,55,50,48,94,78,53,30.30,30.18,12,1,12,0.00
2013-10-30,74,61,53,58,54,50,90,77,57,30.23,30.09,13,1,13,0.00
2013-10-31,65,60,53,60,55,50,92,83,72,30.10,29.68,40,10,41,0.00
2013-11-1,71,63,54,60,55,47,92,75,55,29.73,29.57,34,7,34,0.10
2013-11-2,60,50,43,47,43,38,89,78,57,30.00,29.70,28,4,32,0.01
2013-11-3,55,46,36,42,38,33,91,75,51,30.32,30.00,15,5,16,0.00
2013-11-4,58,45,33,38,33,30,90,67,40,30.46,30.32,22,7,22,0.00
2013-11-5,62,47,35,38,34,30,88,64,33,30.49,30.36,17,4,17,0.00
2013-11-6,68,55,44,54,48,35,91,78,59,30.38,30.07,26,7,26,0.00
2013-11-7,55,48,38,52,44,31,93,86,73,30.18,29.96,25,6,25,0.06
2013-11-8,50,40,32,33,28,24,81,63,40,30.33,30.18,22,6,22,0.00
2013-11-9,55,41,29,34,29,24,84,65,39,30.35,30.21,13,2,13,0.00
2013-11-10,61,50,39,42,34,27,69,54,37,30.27,30.17,28,7,28,0.00
2013-11-11,64,46,30,34,29,20,84,55,24,30.31,30.13,12,2,12,0.00
2013-11-12,50,37,24,40,28,15,88,70,54,30.48,30.07,29,8,29,0.00
2013-11-13,39,28,20,22,19,15,85,69,50,30.60,30.47,19,6,19,0.00
2013-11-14,59,38,20,27,20,16,89,56,20,30.50,30.29,14,1,14,0.00
2013-11-15,45,38,28,43,31,20,94,78,53,30.32,30.17,12,1,12,0.11
2013-11-16,64,52,44,56,49,43,95,90,74,30.25,30.12,21,4,21,0.00
2013-11-17,63,58,55,57,55,52,93,89,80,30.13,29.81,31,12,32,0.17
2013-11-18,60,54,44,56,43,32,94,69,45,30.02,29.78,34,9,34,0.03
2013-11-19,50,42,35,32,29,27,73,61,42,30.19,30.01,26,6,26,0.00
2013-11-20,52,42,35,31,29,26,76,60,41,30.39,30.18,24,9,24,0.00
2013-11-21,52,45,35,49,40,28,93,83,70,30.45,30.33,17,3,17,0.00
2013-11-22,64,55,49,58,52,47,95,91,80,30.35,30.10,15,2,15,0.01
2013-11-23,55,44,31,53,40,22,93,87,69,30.24,30.07,32,9,32,0.00
2013-11-24,32,26,20,22,14,9,75,61,44,30.51,30.24,31,9,31,0.00
2013-11-25,40,30,19,28,14,10,81,54,32,30.52,30.29,17,4,18,0.00
2013-11-26,43,38,32,42,37,28,95,93,79,30.29,29.66,27,3,27,1.62
2013-11-27,40,29,23,39,26,18,94,89,80,30.24,29.65,30,12,34,0.08
2013-11-28,44,28,17,29,22,15,91,76,50,30.49,30.24,22,3,22,0.03
2013-11-29,51,35,23,33,27,20,92,73,48,30.58,30.46,11,3,11,0.00
2013-11-30,49,36,28,30,26,23,85,69,45,30.57,30.34,15,5,16,0.00
2013-12-1,54,38,25,37,30,22,91,74,49,30.34,30.01,14,2,14,0.00
2013-12-2,54,42,32,42,36,28,91,81,60,30.02,29.79,8,1,8,0.00
2013-12-3,58,49,41,50,45,38,92,85,73,29.90,29.80,21,4,22,0.00
2013-12-4,67,55,47,57,51,45,92,86,70,29.99,29.87,20,5,20,0.00
2013-12-5,72,60,51,62,56,48,93,87,68,30.02,29.89,19,4,19,0.12
2013-12-6,70,62,49,64,59,47,96,90,78,30.00,29.81,37,8,37,0.41
2013-12-7,49,40,37,47,38,35,94,92,88,30.34,29.96,30,7,30,0.01
2013-12-8,42,39,37,40,37,35,95,92,87,30.32,30.15,30,10,30,0.15
2013-12-9,50,44,38,48,42,36,95,94,92,30.16,30.00,16,3,16,0.15
2013-12-10,43,36,28,42,34,24,95,89,80,30.33,29.89,33,8,33,0.08
2013-12-11,46,33,20,30,23,18,93,71,40,30.47,30.31,22,4,22,0.15
2013-12-12,35,30,24,23,19,11,84,66,39,30.45,30.35,22,6,26,0.00
2013-12-13,49,33,19,27,20,15,98,64,31,30.41,30.23,7,1,7,0.08
2013-12-14,43,41,37,41,35,25,94,81,55,30.25,29.75,22,5,22,0.36
2013-12-15,43,34,28,42,32,26,95,91,87,30.13,29.75,36,9,36,0.01
2013-12-16,55,37,25,37,29,24,93,77,46,30.23,30.10,11,2,11,0.00
2013-12-17,55,41,28,39,32,24,92,72,42,30.15,29.92,29,5,34,0.01
2013-12-18,44,35,27,25,18,11,81,55,27,30.30,30.10,31,7,31,0.00
2013-12-19,54,40,24,35,26,17,84,58,41,30.34,30.17,15,2,15,0.00
2013-12-20,65,49,35,44,35,26,78,58,38,30.19,30.05,21,4,21,0.00
2013-12-21,65,59,48,61,55,40,91,87,72,30.08,29.83,44,12,44,0.00
2013-12-22,66,58,53,62,56,51,94,91,78,29.99,29.81,38,8,38,0.34
2013-12-23,53,44,33,51,42,31,94,92,89,30.22,29.93,21,8,25,0.08
2013-12-24,33,28,20,31,24,16,92,83,72,30.43,30.21,26,8,26,0.31
2013-12-25,40,27,16,24,18,14,92,71,41,30.51,30.36,16,3,16,0.10
2013-12-26,44,32,21,29,23,17,88,72,49,30.39,30.30,23,3,23,0.28
2013-12-27,45,30,22,29,23,19,92,78,47,30.48,30.36,5,1,9,0.00
2013-12-28,42,33,22,37,29,19,93,84,66,30.43,30.08,20,2,20,0.29
2013-12-29,49,42,39,46,40,36,95,90,84,30.07,29.82,28,7,28,0.13
2013-12-30,42,37,33,38,34,-100,93,89,84,30.16,29.97,19,2,20,0.00
2013-12-31,37,32,27,31,25,21,92,77,57,30.38,30.14,30,5,30,0.00
2014-1-1,47,33,23,33,26,20,91,75,48,30.38,30.11,24,4,24,0.00
2014-1-2,42,32,18,39,29,14,93,88,79,30.12,29.68,42,7,43,0.01